KAL212 KLAX-RKSI

Flight info

Callsign KAL212
Flight time N/A
Altitude 38000
Route SUMMR2 MCKEY DCT LIBBO DCT BRINY DCT ALCOA DCT CEPAS DCT 39N130W 43N140W 45N145W 47N150W 51N160W 52N170W DCT EYETI DCT PLADO G215 NRKEY R220 NODAN R217 SDE Y512 GTC L512 TENAS Y437 KAE Y697 KARBU KARBU3C
Aircraft B77W/H-SDE1E2E3FGHIJ2J3J4J5M1RWXY/LB1D1

Departure

Time 2026-05-06 05:36
Airport Los Angeles International Airport (KLAX)

Arrival

Time N/A
Airport Incheon International Airport (RKSI)
Time Latitude Longitude Altitude Speed Heading
2026-05-06 05:05 33.94020 -118.41086 130 ft 0 kts 83°
2026-05-06 05:14 33.94018 -118.41108 128 ft 4 kts 82°
2026-05-06 05:14 33.94014 -118.41140 125 ft 4 kts 83°
2026-05-06 05:14 33.94012 -118.41171 125 ft 4 kts 110°
2026-05-06 05:14 33.94027 -118.41186 125 ft 4 kts 172°
2026-05-06 05:15 33.94049 -118.41189 125 ft 0 kts 173°
2026-05-06 05:26 33.94038 -118.41188 125 ft 8 kts 174°
2026-05-06 05:26 33.93939 -118.41173 128 ft 18 kts 173°
2026-05-06 05:26 33.93817 -118.41156 128 ft 17 kts 174°
2026-05-06 05:26 33.93787 -118.41151 127 ft 0 kts 169°
2026-05-06 05:27 33.93770 -118.41135 128 ft 5 kts 126°
2026-05-06 05:27 33.93769 -118.41075 127 ft 15 kts 85°
2026-05-06 05:27 33.93785 -118.40919 130 ft 19 kts 82°
2026-05-06 05:27 33.93802 -118.40760 127 ft 19 kts 83°
2026-05-06 05:28 33.93817 -118.40601 128 ft 19 kts 83°
2026-05-06 05:28 33.93834 -118.40442 129 ft 19 kts 83°
2026-05-06 05:28 33.93850 -118.40282 128 ft 19 kts 83°
2026-05-06 05:28 33.93865 -118.40125 127 ft 19 kts 83°
2026-05-06 05:29 33.93882 -118.39966 126 ft 19 kts 83°
2026-05-06 05:29 33.93898 -118.39807 125 ft 19 kts 83°
2026-05-06 05:29 33.93916 -118.39648 129 ft 19 kts 81°
2026-05-06 05:29 33.93932 -118.39489 129 ft 19 kts 84°
2026-05-06 05:30 33.93946 -118.39330 129 ft 19 kts 84°
2026-05-06 05:30 33.93964 -118.39171 127 ft 19 kts 83°
2026-05-06 05:30 33.93980 -118.39014 130 ft 19 kts 83°
2026-05-06 05:30 33.93998 -118.38837 125 ft 22 kts 83°
2026-05-06 05:31 33.94016 -118.38655 127 ft 22 kts 83°
2026-05-06 05:31 33.94034 -118.38474 127 ft 22 kts 83°
2026-05-06 05:31 33.94048 -118.38330 129 ft 13 kts 83°
2026-05-06 05:31 33.94053 -118.38283 126 ft 0 kts 83°
2026-05-06 05:32 33.94056 -118.38259 127 ft 6 kts 82°
2026-05-06 05:32 33.94062 -118.38208 130 ft 6 kts 81°
2026-05-06 05:33 33.94068 -118.38156 130 ft 6 kts 83°
2026-05-06 05:33 33.94071 -118.38121 127 ft 0 kts 83°
2026-05-06 05:33 33.94072 -118.38105 130 ft 0 kts 83°
2026-05-06 05:34 33.94073 -118.38103 130 ft 3 kts 83°
2026-05-06 05:34 33.94052 -118.38019 129 ft 9 kts 138°
2026-05-06 05:34 33.94001 -118.38015 126 ft 8 kts 210°
2026-05-06 05:34 33.93981 -118.38075 126 ft 9 kts 259°
2026-05-06 05:35 33.93968 -118.38197 125 ft 23 kts 263°
2026-05-06 05:35 33.93932 -118.38544 128 ft 69 kts 263°
2026-05-06 05:35 33.93847 -118.39355 130 ft 127 kts 263°
2026-05-06 05:35 33.93717 -118.40610 129 ft 173 kts 263°
2026-05-06 05:36 33.93552 -118.42162 280 ft 190 kts 262°
2026-05-06 05:36 33.93358 -118.43735 711 ft 193 kts 259°
2026-05-06 05:36 33.93140 -118.45335 1159 ft 194 kts 264°
2026-05-06 05:36 33.93034 -118.46983 1531 ft 200 kts 265°
2026-05-06 05:37 33.92922 -118.48644 2017 ft 197 kts 269°
2026-05-06 05:37 33.92950 -118.50314 2360 ft 200 kts 271°
2026-05-06 05:37 33.93089 -118.51991 2637 ft 205 kts 284°
2026-05-06 05:37 33.93416 -118.53662 2999 ft 205 kts 278°
2026-05-06 05:38 33.93564 -118.55358 3313 ft 212 kts 272°
2026-05-06 05:38 33.93582 -118.57204 3456 ft 229 kts 268°
2026-05-06 05:38 33.93509 -118.59185 3665 ft 244 kts 266°
2026-05-06 05:38 33.93382 -118.61275 3991 ft 254 kts 265°
2026-05-06 05:39 33.93229 -118.63426 4449 ft 262 kts 265°
2026-05-06 05:39 33.93066 -118.65615 4949 ft 265 kts 265°
2026-05-06 05:39 33.92897 -118.67851 4964 ft 271 kts 265°
2026-05-06 05:39 33.92723 -118.70104 4992 ft 270 kts 265°
2026-05-06 05:40 33.92549 -118.72345 4982 ft 268 kts 265°
2026-05-06 05:40 33.92375 -118.74581 5278 ft 268 kts 265°
2026-05-06 05:40 33.92200 -118.76827 5852 ft 271 kts 265°
2026-05-06 05:40 33.92025 -118.79065 6425 ft 273 kts 265°
2026-05-06 05:41 33.91845 -118.81356 6934 ft 278 kts 265°
2026-05-06 05:41 33.91671 -118.83695 7389 ft 283 kts 268°
2026-05-06 05:41 33.91681 -118.86078 7849 ft 287 kts 274°
2026-05-06 05:41 33.91788 -118.88494 8341 ft 291 kts 275°
2026-05-06 05:42 33.91898 -118.90947 8823 ft 296 kts 275°
2026-05-06 05:42 33.91991 -118.93438 9291 ft 301 kts 275°
2026-05-06 05:42 33.92073 -118.95972 9773 ft 305 kts 275°
2026-05-06 05:42 33.92149 -118.98528 10274 ft 308 kts 275°
2026-05-06 05:43 33.92279 -119.01117 10401 ft 319 kts 284°
2026-05-06 05:43 33.93026 -119.03422 10500 ft 323 kts 306°
2026-05-06 05:43 33.94410 -119.05665 10693 ft 348 kts 315°
2026-05-06 05:43 33.96121 -119.07878 10927 ft 373 kts 314°
2026-05-06 05:44 33.97857 -119.10240 11081 ft 379 kts 314°
2026-05-06 05:44 33.99606 -119.12613 11185 ft 379 kts 314°
2026-05-06 05:44 34.01355 -119.14982 11310 ft 378 kts 314°
2026-05-06 05:44 34.02878 -119.17040 11426 ft 377 kts 314°
2026-05-06 05:45 34.04622 -119.19392 11574 ft 376 kts 314°
2026-05-06 05:45 34.06369 -119.21745 11727 ft 376 kts 314°
2026-05-06 05:45 34.08097 -119.24068 11894 ft 378 kts 314°
2026-05-06 05:45 34.09858 -119.26429 12028 ft 380 kts 314°
2026-05-06 05:46 34.11632 -119.28801 12191 ft 382 kts 314°
2026-05-06 05:46 34.13417 -119.31181 12339 ft 383 kts 315°
2026-05-06 05:46 34.15225 -119.33542 12477 ft 379 kts 320°
2026-05-06 05:46 34.17344 -119.35407 12617 ft 377 kts 332°
2026-05-06 05:47 34.19677 -119.36895 13046 ft 382 kts 335°
2026-05-06 05:47 34.22033 -119.38423 13697 ft 386 kts 332°
2026-05-06 05:47 34.24359 -119.40067 14339 ft 388 kts 330°
2026-05-06 05:47 34.26659 -119.41799 14967 ft 391 kts 330°
2026-05-06 05:48 34.28922 -119.43564 15563 ft 394 kts 329°
2026-05-06 05:48 34.31220 -119.45386 16146 ft 397 kts 329°
2026-05-06 05:48 34.33532 -119.47226 16740 ft 400 kts 329°
2026-05-06 05:48 34.35863 -119.49080 17316 ft 403 kts 330°
2026-05-06 05:49 34.38216 -119.50948 17896 ft 405 kts 330°
2026-05-06 05:49 34.40502 -119.52977 18449 ft 411 kts 323°
2026-05-06 05:49 34.42621 -119.55334 18970 ft 416 kts 318°
2026-05-06 05:49 34.44540 -119.57978 19483 ft 420 kts 315°
2026-05-06 05:50 34.46449 -119.60680 19883 ft 424 kts 316°
2026-05-06 05:50 34.48375 -119.63359 20288 ft 429 kts 315°
2026-05-06 05:50 34.50300 -119.66127 20859 ft 431 kts 315°
2026-05-06 05:50 34.52230 -119.68922 21349 ft 433 kts 315°
2026-05-06 05:51 34.54177 -119.71734 21798 ft 437 kts 315°
2026-05-06 05:51 34.56146 -119.74560 22243 ft 440 kts 316°
2026-05-06 05:51 34.58134 -119.77404 22690 ft 443 kts 316°
2026-05-06 05:51 34.60131 -119.80257 23222 ft 444 kts 316°
2026-05-06 05:52 34.62144 -119.83129 23561 ft 449 kts 316°
2026-05-06 05:52 34.64176 -119.86026 23929 ft 452 kts 316°
2026-05-06 05:52 34.66219 -119.88944 24293 ft 454 kts 316°
2026-05-06 05:52 34.68263 -119.91868 24716 ft 455 kts 316°
2026-05-06 05:53 34.70315 -119.94804 25084 ft 456 kts 316°
2026-05-06 05:53 34.72349 -119.97718 25352 ft 460 kts 316°
2026-05-06 05:53 34.74422 -120.00688 25729 ft 461 kts 316°
2026-05-06 05:53 34.76499 -120.03671 26043 ft 463 kts 316°
2026-05-06 05:54 34.78590 -120.06673 26373 ft 466 kts 316°
2026-05-06 05:54 34.80688 -120.09685 26741 ft 467 kts 317°
2026-05-06 05:54 34.82793 -120.12712 27051 ft 470 kts 316°
2026-05-06 05:54 34.84911 -120.15761 27321 ft 473 kts 316°
2026-05-06 05:55 34.87039 -120.18827 27631 ft 475 kts 316°
2026-05-06 05:55 34.89172 -120.21906 28002 ft 476 kts 316°
2026-05-06 05:55 34.91306 -120.24986 28424 ft 475 kts 316°
2026-05-06 05:55 34.93415 -120.28028 28686 ft 478 kts 316°
2026-05-06 05:56 34.95567 -120.31141 28855 ft 482 kts 316°
2026-05-06 05:56 34.97730 -120.34274 29129 ft 484 kts 316°
2026-05-06 05:56 34.99901 -120.37421 29387 ft 485 kts 316°
2026-05-06 05:56 35.02070 -120.40570 29718 ft 484 kts 316°
2026-05-06 05:57 35.04230 -120.43710 30116 ft 482 kts 316°
2026-05-06 05:57 35.06375 -120.46829 30522 ft 478 kts 316°
2026-05-06 05:57 35.08510 -120.49938 30820 ft 477 kts 316°
2026-05-06 05:57 35.10645 -120.53043 31034 ft 478 kts 316°
2026-05-06 05:58 35.12753 -120.56109 31255 ft 478 kts 316°
2026-05-06 05:58 35.14887 -120.59217 31518 ft 477 kts 316°
2026-05-06 05:58 35.17015 -120.62320 31775 ft 476 kts 316°
2026-05-06 05:58 35.19131 -120.65415 31990 ft 471 kts 317°
2026-05-06 05:59 35.23273 -120.71504 31937 ft 461 kts 317°